Wind_Speed
90 88 87 87 88 88 87 86 85 84 82 81 80 79 77 76 75 74 73 70 69 68 68 68 66 63 59 54 50 46 43 41 40 39 37 34 33 32 32 33 35 36 36 36 36 35 33 31 29 26 23 21 20 19 19 20 22 24 25 26 26 25 26
92 90 89 89 90 89 88 86 86 86 85 83 82 81 79 77 76 76 75 74 73 72 72 70 67 63 59 54 50 47 43 41 41 40 37 35 34 32 31 33 36 37 37 37 38 36 34 31 29 28 25 23 22 21 20 21 23 24 26 27 28 28 27
96 94 92 92 92 91 89 88 87 87 87 86 84 82 80 78 77 77 77 77 76 75 72 69 66 63 59 56 52 50 46 43 43 42 39 36 34 33 33 33 37 39 39 39 39 38 35 32 31 30 28 26 24 23 22 21 22 24 26 28 30 30 29
99 97 96 95 95 93 91 90 89 89 88 87 85 83 81 79 78 77 78 80 79 75 72 69 67 64 61 58 55 53 51 47 46 44 41 38 36 35 35 35 36 40 40 39 39 38 35 33 32 31 30 28 25 24 23 21 21 23 27 30 32 32 31
103 101 100 99 98 96 94 93 91 90 89 87 85 84 83 82 81 80 81 83 80 75 72 71 69 65 63 60 58 56 54 52 50 47 44 42 39 38 37 37 37 39 40 40 40 39 36 33 33 33 32 30 27 25 24 23 22 24 27 29 30 31 31
106 105 104 102 101 100 98 96 93 91 90 88 86 85 85 84 83 83 84 84 82 77 74 72 69 67 65 62 60 58 57 56 54 51 47 45 44 41 39 39 39 39 40 40 40 40 38 36 36 35 34 32 29 27 26 25 24 24 25 26 28 29 30
109 109 107 105 104 103 101 99 97 94 92 90 88 87 86 84 83 83 85 85 83 79 76 73 71 69 67 64 62 61 60 59 58 55 51 49 48 45 42 42 42 41 40 41 41 41 41 39 37 36 35 34 31 29 27 27 27 25 25 25 26 28 29
110 110 110 108 108 106 105 103 100 97 95 93 91 89 88 87 85 85 85 85 83 81 78 75 73 71 69 66 65 64 62 61 61 60 57 54 51 48 44 43 44 43 42 41 42 43 43 41 38 37 37 35 33 31 30 29 28 26 25 25 26 28 29
111 111 111 110 110 109 108 106 104 101 99 96 94 93 91 89 88 87 86 84 83 83 80 77 75 73 70 69 68 66 65 64 64 64 61 57 53 50 46 44 44 44 43 43 44 44 45 43 39 38 38 37 36 34 32 30 29 27 26 26 26 26 28
112 112 111 111 111 110 110 109 106 104 102 100 98 96 94 92 90 89 87 84 83 83 81 79 77 75 72 71 70 70 68 66 66 66 64 59 54 50 48 45 43 44 45 44 44 44 45 43 40 38 40 39 37 35 33 31 30 28 26 26 26 25 25
112 112 111 111 111 110 110 110 109 107 105 103 101 99 97 95 93 91 88 86 84 84 82 80 79 77 74 72 72 72 71 69 68 67 65 61 56 52 49 47 45 46 48 46 45 45 44 42 39 38 40 40 37 35 34 32 31 29 27 26 25 25 24
113 112 112 112 112 111 111 110 110 109 108 106 104 102 101 99 96 93 90 88 87 85 83 81 81 79 76 74 74 74 74 72 70 69 67 64 60 55 52 50 48 49 51 50 48 46 44 43 40 39 40 39 37 35 34 33 32 30 28 26 25 25 25
114 114 114 114 114 113 112 111 111 110 110 109 107 106 104 102 100 97 93 90 89 87 84 83 82 80 78 76 76 76 75 74 71 70 69 66 64 61 57 54 51 50 52 54 51 47 45 44 43 42 42 41 39 36 34 33 33 31 28 26 25 25 26
113 115 115 115 115 115 114 113 112 112 112 111 110 109 108 106 104 100 96 93 91 89 87 85 83 81 80 78 78 77 76 75 73 71 70 68 66 65 61 57 54 52 53 55 55 51 46 45 45 45 45 44 41 39 36 35 33 31 29 28 26 26 26
111 114 116 116 116 115 115 115 114 114 113 113 113 112 111 109 107 104 100 97 94 91 89 88 86 83 82 81 79 78 77 76 75 74 72 70 69 67 66 61 57 55 54 55 57 55 50 47 48 48 48 46 44 42 40 37 35 32 30 28 28 27 26
105 110 114 116 117 116 116 116 116 116 115 115 114 114 113 112 109 107 103 100 97 94 93 91 89 86 84 83 81 80 79 77 77 76 74 73 71 70 69 66 61 58 56 56 58 58 54 50 50 51 50 48 47 45 43 40 37 33 31 30 29 29 28
99 104 108 113 116 116 116 117 117 117 117 116 115 115 114 113 112 110 107 104 100 98 97 96 93 89 87 85 83 81 80 79 78 77 76 75 74 73 72 70 67 61 58 57 58 60 58 54 52 53 52 50 48 46 44 42 39 35 31 30 31 32 32
95 99 102 107 112 114 116 117 118 118 118 118 117 116 115 115 113 112 110 107 104 102 101 99 97 93 90 87 85 83 81 81 80 79 78 78 77 76 75 72 71 67 61 58 58 59 60 58 55 54 53 52 50 48 46 44 41 37 33 32 34 36 36
93 96 98 100 103 108 114 118 118 119 120 119 119 118 117 116 115 113 112 110 107 105 104 103 100 97 94 90 87 84 82 82 82 82 82 80 79 79 77 73 72 72 66 61 61 61 61 60 58 56 55 54 52 50 49 48 45 43 40 39 39 40 41
92 94 95 95 96 102 110 115 117 119 120 120 120 120 118 117 116 114 113 112 110 107 106 105 103 100 97 94 90 86 83 83 84 85 84 83 81 81 82 78 74 74 71 66 64 63 62 60 58 56 54 54 54 54 52 50 48 47 46 45 44 44 45
90 92 93 93 93 96 103 109 114 117 119 120 121 121 120 119 117 115 114 113 112 110 108 107 106 104 101 97 93 89 85 84 86 86 84 84 83 83 84 83 80 78 76 71 66 64 63 59 55 53 53 53 56 58 56 52 50 49 50 50 48 48 48
88 91 93 93 92 94 98 103 108 113 117 119 121 121 121 120 118 116 115 114 114 111 109 109 108 107 105 101 97 93 88 86 87 87 85 85 85 84 85 86 85 82 80 77 71 67 66 62 57 56 56 55 57 60 58 55 53 53 54 54 53 51 50
86 88 91 93 92 93 97 101 104 107 112 116 119 120 120 120 119 117 116 115 115 113 111 110 110 109 108 105 101 98 93 89 89 89 87 86 86 87 87 88 87 86 84 81 76 70 68 67 63 60 58 56 58 62 61 57 57 57 57 57 56 53 51
84 86 87 89 91 93 96 100 102 103 106 111 115 117 118 119 119 118 117 116 116 115 113 112 111 111 111 108 105 102 98 94 91 91 90 89 89 89 89 90 90 89 87 86 81 73 70 71 70 66 62 58 58 62 64 63 61 60 59 59 58 55 52
79 83 84 86 87 89 94 99 101 101 102 104 107 110 113 116 118 118 118 117 117 116 115 114 113 113 113 111 108 106 102 98 95 94 92 92 92 92 90 90 93 93 91 89 86 79 75 75 75 73 70 66 63 63 65 66 65 63 62 62 60 55 51
72 77 81 83 84 85 89 95 99 99 98 98 98 100 106 112 116 118 119 119 118 118 117 115 114 114 114 114 112 109 106 103 99 97 96 95 96 95 91 89 92 95 95 93 90 87 83 79 78 77 75 71 69 69 68 67 67 65 64 64 62 57 53
65 70 74 78 81 83 86 91 95 97 94 92 91 93 99 106 112 116 118 119 119 119 118 117 116 115 115 116 114 112 109 107 103 101 100 99 98 98 96 92 90 93 97 96 93 91 88 82 79 80 79 75 72 73 73 71 70 68 67 66 65 61 57
59 63 68 73 77 80 83 86 90 93 91 89 89 91 94 99 106 112 117 118 119 120 120 118 117 116 116 116 116 114 112 110 107 105 104 103 101 100 100 98 94 93 97 99 97 95 93 89 83 81 81 80 77 75 74 75 73 72 71 70 68 65 62
53 57 61 66 72 76 79 82 85 88 88 87 89 91 92 93 98 105 112 117 118 120 121 120 118 117 117 117 118 117 114 113 110 108 107 107 105 103 102 102 98 95 96 99 99 97 96 94 88 83 81 83 83 78 76 76 76 75 75 73 70 67 63
46 50 55 61 66 70 74 78 82 85 86 85 87 89 91 90 92 97 105 112 116 119 121 121 120 118 118 118 118 118 117 115 113 111 111 110 109 107 105 104 102 99 98 99 101 100 99 96 93 87 83 83 85 83 80 78 78 79 79 77 75 70 65
39 43 49 55 60 65 69 73 78 82 83 83 84 86 88 88 89 92 97 105 112 116 120 122 121 120 119 119 119 119 119 117 116 114 113 113 112 111 109 106 104 102 101 100 101 103 102 99 96 91 85 82 83 84 84 82 81 81 81 80 78 75 69
35 38 42 48 53 58 63 68 73 77 80 81 82 82 84 86 87 89 92 98 105 112 117 120 122 121 120 120 120 120 120 119 118 117 116 116 115 114 113 110 107 105 103 101 101 103 104 103 100 95 88 83 82 83 85 85 84 83 82 81 79 77 73
32 35 38 42 46 51 57 62 68 72 76 78 79 79 81 83 85 87 89 92 98 105 112 117 121 122 122 121 121 121 121 120 120 119 118 117 118 118 116 114 111 109 107 104 101 102 104 104 103 99 93 88 85 85 86 86 85 84 84 82 79 77 75
31 33 36 39 42 45 50 55 61 67 71 74 75 76 77 80 82 84 86 89 93 99 106 113 118 121 122 122 121 121 122 121 121 121 120 119 119 119 119 117 115 112 110 109 106 103 103 104 103 101 98 94 90 88 87 87 86 85 85 83 80 78 77
30 32 35 37 39 42 46 49 54 60 65 69 71 72 74 76 78 81 84 87 90 94 100 107 114 119 122 123 122 121 122 122 122 122 122 121 120 121 121 120 119 116 113 112 111 108 105 103 103 103 103 100 96 92 89 89 88 86 85 84 81 80 79
30 32 34 36 38 40 43 46 50 54 59 63 66 68 70 72 75 78 81 84 87 91 96 102 109 115 120 123 122 122 122 123 123 123 123 122 122 122 122 122 121 120 117 114 113 112 109 106 105 105 106 105 102 98 94 92 90 88 87 86 84 82 82
29 31 34 36 37 39 41 44 47 51 54 58 61 63 66 68 71 74 77 81 84 88 92 97 103 110 116 120 122 122 123 124 124 124 124 124 123 122 123 123 123 123 120 117 115 114 112 110 108 108 108 108 107 105 101 98 95 92 90 88 86 85 84
Wind_Direction
227 228 228 229 229 229 229 230 231 232 232 232 232 232 231 231 231 232 231 228 226 225 225 227 230 230 231 232 233 231 228 230 234 234 234 234 234 233 229 223 218 214 215 216 212 210 213 215 218 220 219 219 219 220 220 220 218 211 203 199 200 202 202
228 227 228 229 229 229 229 229 230 231 231 231 231 231 231 230 231 232 232 230 227 225 225 227 229 231 231 232 234 235 232 231 235 237 235 233 233 233 229 221 213 210 213 216 213 211 211 213 217 220 219 217 218 219 218 219 219 214 206 199 198 201 202
228 228 228 229 229 229 229 229 229 230 230 230 230 230 230 230 230 231 233 232 229 227 226 227 228 230 232 232 233 236 235 232 234 237 237 234 231 229 226 219 211 208 211 214 214 211 210 211 215 218 218 216 217 221 220 219 220 217 210 203 200 201 203
229 228 228 228 229 229 229 228 229 230 230 230 230 229 229 229 229 230 232 233 231 228 228 228 228 228 229 230 231 234 235 233 232 234 236 235 231 227 224 219 213 211 212 213 214 212 210 211 215 219 219 215 215 221 222 221 222 219 213 208 204 203 204
229 229 228 228 229 229 229 228 228 229 230 230 230 230 229 228 227 228 230 232 231 229 228 228 228 227 227 228 229 230 232 233 232 231 233 234 232 228 223 219 216 214 213 212 212 212 212 213 216 220 220 215 212 217 221 221 222 222 219 214 210 208 207
228 229 229 229 229 229 229 228 228 228 229 230 230 230 230 229 228 227 228 230 231 229 227 227 227 227 226 226 227 227 229 231 232 230 229 230 231 229 223 218 217 217 215 212 211 212 213 214 216 218 219 216 212 214 219 221 221 223 222 219 215 213 213
228 228 228 228 229 229 229 229 228 228 228 229 229 229 230 230 229 228 229 230 230 229 227 225 225 225 224 224 224 225 226 228 231 231 228 226 228 228 223 218 216 216 217 215 212 212 213 214 216 217 219 218 214 213 216 220 222 221 221 220 217 215 215
228 228 228 228 229 229 229 229 228 228 228 228 228 228 229 229 229 228 229 230 231 231 228 225 224 223 223 222 222 223 224 226 229 231 229 226 225 226 224 220 216 215 218 218 215 214 214 215 217 218 218 217 215 214 215 219 222 221 218 219 217 214 214
229 229 229 228 228 229 229 229 229 228 228 228 228 228 228 228 228 228 228 228 230 231 230 227 225 223 221 221 221 221 222 223 226 230 230 227 225 224 225 223 218 215 217 220 218 216 216 216 218 219 218 216 215 215 216 217 222 223 218 217 217 216 214
230 230 229 229 229 229 229 230 229 228 228 228 228 228 228 228 228 228 227 227 228 230 230 228 226 224 221 220 220 221 220 221 223 227 230 230 226 224 225 224 220 216 218 222 223 221 219 218 220 220 217 216 216 216 216 217 220 222 219 216 216 217 216
230 230 230 230 230 230 230 230 230 230 229 228 228 228 228 228 228 228 227 226 226 228 228 228 227 225 222 220 220 220 220 220 220 224 228 230 228 225 223 224 221 216 216 220 224 225 223 222 223 223 219 218 218 218 217 218 220 222 220 216 213 214 215
230 229 229 229 229 229 229 230 230 230 230 229 229 228 228 228 228 228 227 226 226 226 226 227 227 226 223 221 220 220 220 219 219 221 224 227 229 226 221 220 221 218 213 215 219 222 223 223 225 224 221 220 221 221 220 221 223 223 222 218 213 212 213
231 230 229 229 229 229 229 229 229 230 230 230 229 229 229 229 228 227 227 227 226 226 225 226 226 226 224 222 220 220 219 219 219 220 221 224 227 228 224 219 219 220 215 213 215 218 219 222 224 222 219 218 220 221 222 223 224 224 224 222 217 213 214
232 231 230 229 229 228 228 228 228 229 229 229 229 229 229 229 229 227 227 226 226 226 226 225 225 225 224 223 221 220 219 218 218 219 220 221 223 228 228 222 216 218 218 214 212 215 216 218 221 221 217 215 216 218 220 223 224 225 226 225 223 219 217
233 233 232 230 229 228 228 228 228 228 228 228 229 229 228 229 229 228 226 226 226 226 226 226 225 224 224 223 221 221 220 218 217 217 218 219 221 224 228 227 219 216 218 216 212 214 216 215 216 218 216 215 215 215 215 218 221 223 225 227 229 229 225
232 233 233 232 230 229 228 228 228 228 228 228 228 228 228 228 228 228 226 226 225 225 226 226 225 224 223 222 221 220 220 219 218 217 216 217 219 221 225 229 224 216 216 217 213 213 216 216 214 215 216 216 216 215 214 215 217 219 222 226 229 232 232
231 232 233 233 232 230 229 228 228 228 228 228 228 228 228 228 227 227 226 225 224 224 225 226 225 224 223 222 221 220 219 219 218 217 216 216 217 218 221 226 228 220 214 216 215 213 214 217 215 214 215 216 216 216 215 215 216 216 220 228 232 232 232
231 231 232 233 233 232 230 229 228 228 228 228 228 228 228 228 227 227 226 225 224 224 225 225 225 224 223 222 221 219 219 218 218 217 217 216 215 216 217 221 227 225 217 214 216 215 214 216 217 216 215 216 216 215 214 214 214 212 213 223 233 236 235
231 232 232 232 233 233 231 230 228 228 228 228 228 228 228 228 227 227 227 226 224 223 224 225 225 224 224 223 221 219 218 218 218 217 217 217 215 215 216 217 222 225 220 214 214 216 214 214 217 218 216 216 216 215 213 213 212 210 207 208 218 229 234
232 233 232 232 232 233 233 231 229 228 227 227 227 227 227 227 227 227 226 226 225 223 223 224 225 224 224 223 222 219 218 218 218 217 217 217 216 215 216 216 218 221 221 216 213 214 214 212 215 219 219 218 219 217 215 213 212 211 209 206 208 216 224
231 233 233 232 232 233 234 233 231 229 228 227 227 227 227 227 227 226 226 226 226 224 223 224 224 224 224 223 222 220 217 218 219 218 217 217 217 216 216 216 217 219 221 219 214 213 214 212 212 217 219 220 222 221 217 214 213 212 213 211 209 212 217
231 231 232 232 231 231 233 234 233 231 229 227 226 226 226 226 226 226 226 226 226 225 223 223 224 224 224 222 221 220 217 217 219 219 217 216 217 218 217 217 217 218 220 221 217 213 213 211 210 212 214 216 220 220 217 214 214 214 215 215 214 215 217
232 231 231 231 230 230 232 233 233 232 230 228 226 226 225 225 226 226 226 226 226 225 224 223 223 224 224 222 221 220 217 216 218 220 218 216 217 218 219 218 217 217 218 220 219 215 213 211 210 211 212 215 219 219 216 214 214 215 216 217 218 219 220
232 233 232 231 230 229 231 233 233 232 231 229 227 226 225 225 225 225 225 225 225 225 224 223 223 224 224 223 221 220 217 215 216 219 219 217 216 218 218 218 218 217 217 219 218 215 213 212 211 210 210 213 216 216 215 214 215 216 216 217 219 221 222
231 232 233 233 231 230 231 233 234 233 231 230 228 226 225 225 224 224 225 225 225 225 224 223 223 223 224 224 222 220 218 215 214 217 218 218 217 217 216 218 218 217 217 218 217 215 214 213 211 210 211 212 214 214 214 214 215 215 216 217 219 221 223
229 231 232 233 233 231 230 233 235 235 233 232 230 227 225 225 224 223 223 224 224 225 224 223 223 223 224 224 223 220 218 216 213 215 217 218 218 217 215 216 218 218 217 217 216 215 215 214 212 211 212 213 214 214 214 214 215 216 216 218 219 220 222
229 229 230 232 232 232 231 232 234 235 234 233 231 229 226 224 224 223 223 223 223 224 224 223 222 222 223 224 224 222 219 217 214 213 215 217 218 218 216 214 216 217 217 217 216 215 216 216 213 212 212 213 214 214 213 214 216 216 216 218 219 219 221
230 229 229 229 231 231 232 233 234 235 234 232 231 230 228 225 223 223 223 222 222 223 224 223 222 221 222 223 224 223 221 218 215 213 214 216 217 218 217 215 215 217 218 218 216 215 216 217 216 214 214 214 215 214 213 213 215 217 217 218 220 220 221
233 230 228 228 229 229 230 232 234 235 234 232 230 230 229 226 223 223 223 222 221 222 223 223 222 221 221 222 223 223 222 220 216 213 213 215 217 218 218 217 215 215 218 220 218 216 216 217 217 217 217 216 215 214 214 213 215 217 218 218 220 221 222
234 233 230 228 228 228 229 230 232 234 234 232 230 230 229 228 224 222 222 222 221 220 222 223 222 221 221 221 222 222 222 221 218 214 213 214 216 217 218 218 216 214 217 220 220 218 217 217 217 217 217 217 215 215 215 214 215 217 218 218 220 222 223
232 233 233 231 229 228 228 228 230 232 233 232 231 229 229 228 226 223 222 222 221 220 220 222 222 221 220 220 221 221 221 221 220 216 213 213 215 216 217 218 217 215 216 219 221 220 218 217 216 216 215 215 214 214 215 216 217 218 218 219 220 222 224
231 231 233 233 232 230 228 228 229 231 232 232 231 229 228 228 227 224 222 221 221 221 220 221 222 221 220 220 220 221 221 221 220 218 215 213 214 216 217 217 217 216 216 217 220 221 220 217 216 215 214 214 214 214 215 217 218 219 220 221 221 222 223
229 229 231 233 233 232 230 229 230 231 232 232 231 230 228 227 227 225 223 221 220 220 220 220 221 221 221 220 219 220 221 220 220 219 217 214 213 215 216 217 217 217 216 216 218 221 221 219 217 215 214 214 215 215 214 215 217 219 221 222 222 222 223
228 228 229 230 232 232 231 231 230 231 232 232 232 231 229 228 227 225 223 221 220 219 220 220 220 220 221 220 219 219 220 220 220 219 219 216 213 214 216 217 217 217 216 216 216 219 220 220 218 216 215 215 216 215 214 214 216 218 220 222 223 223 223
230 228 227 229 230 231 231 231 231 232 232 232 232 231 230 229 227 226 224 222 220 219 219 219 219 219 220 220 219 219 219 220 220 219 219 217 215 214 215 216 217 217 217 216 216 217 219 220 219 217 216 217 217 216 215 214 215 217 220 221 222 223 224
234 231 229 228 228 229 230 230 230 231 232 233 232 232 231 229 228 226 224 222 221 219 218 218 219 219 219 220 219 218 218 219 220 219 219 218 216 214 214 215 217 217 217 217 217 216 217 219 220 218 217 217 217 217 216 215 216 217 219 220 221 222 224
238 236 233 231 229 228 229 230 230 230 231 232 232 231 231 230 228 227 225 223 221 220 218 218 218 219 219 220 219 218 217 218 219 219 218 218 217 216 214 214 216 217 217 217 217 217 216 217 219 220 219 217 217 218 218 219 219 219 219 219 220 221 222
Height
10784 10790 10795 10798 10802 10806 10812 10819 10823 10828 10836 10842 10847 10852 10859 10865 10871 10876 10882 10889 10895 10896 10895 10894 10898 10905 10912 10918 10925 10930 10933 10936 10938 10940 10943 10946 10948 10951 10953 10956 10959 10961 10964 10966 10970 10972 10975 10977 10981 10983 10985 10985 10985 10985 10986 10987 10989 10991 10992 10995 10997 10999 11000
10774 10781 10786 10787 10789 10796 10805 10812 10815 10820 10825 10831 10837 10843 10850 10858 10864 10868 10872 10879 10883 10884 10886 10891 10898 10905 10912 10920 10926 10929 10934 10937 10937 10938 10941 10944 10946 10949 10951 10954 10956 10959 10961 10963 10966 10970 10972 10975 10978 10981 10983 10984 10983 10983 10984 10986 10987 10989 10991 10993 10995 10997 10999
10762 10770 10775 10776 10779 10787 10796 10803 10806 10809 10814 10821 10828 10835 10843 10851 10857 10861 10864 10867 10872 10877 10884 10893 10900 10906 10912 10918 10923 10926 10931 10935 10936 10936 10939 10942 10945 10947 10948 10950 10953 10955 10957 10960 10963 10966 10970 10973 10975 10978 10980 10981 10982 10982 10983 10984 10986 10988 10990 10992 10993 10995 10997
10750 10758 10763 10765 10769 10778 10785 10792 10797 10801 10806 10813 10821 10828 10836 10842 10848 10853 10855 10854 10861 10873 10883 10890 10897 10903 10908 10913 10918 10922 10926 10930 10932 10934 10936 10939 10941 10943 10945 10947 10950 10952 10954 10957 10961 10964 10968 10970 10973 10975 10977 10979 10981 10981 10982 10983 10985 10987 10988 10989 10990 10992 10994
10738 10745 10750 10754 10761 10768 10774 10782 10789 10794 10799 10807 10814 10820 10826 10831 10837 10842 10843 10842 10853 10869 10878 10884 10891 10898 10904 10908 10913 10917 10920 10923 10926 10929 10932 10935 10937 10939 10941 10944 10946 10948 10951 10954 10958 10962 10965 10968 10970 10972 10974 10977 10979 10979 10980 10982 10984 10985 10986 10987 10989 10991 10993
10724 10730 10738 10746 10752 10757 10764 10772 10780 10786 10792 10800 10807 10811 10817 10823 10829 10833 10833 10835 10846 10859 10869 10878 10886 10893 10899 10903 10908 10911 10915 10917 10920 10923 10927 10929 10931 10934 10937 10940 10942 10945 10948 10951 10955 10958 10961 10964 10966 10968 10971 10974 10976 10977 10978 10980 10981 10983 10985 10986 10988 10990 10991
10711 10717 10727 10735 10741 10747 10754 10761 10770 10778 10784 10790 10797 10802 10808 10815 10822 10826 10826 10831 10840 10850 10861 10871 10878 10884 10891 10897 10902 10905 10909 10912 10913 10916 10920 10923 10925 10928 10932 10936 10938 10942 10945 10949 10952 10955 10957 10960 10962 10966 10968 10971 10973 10975 10976 10978 10979 10981 10983 10985 10987 10988 10990
10700 10707 10716 10724 10730 10737 10743 10749 10760 10769 10774 10781 10787 10792 10799 10804 10810 10815 10819 10828 10836 10842 10852 10863 10870 10876 10884 10890 10895 10899 10903 10905 10906 10908 10912 10917 10920 10924 10928 10932 10936 10939 10943 10946 10950 10952 10954 10957 10960 10963 10965 10968 10971 10973 10974 10976 10977 10980 10982 10983 10985 10986 10988
10689 10696 10705 10713 10720 10726 10732 10739 10750 10758 10765 10772 10777 10782 10789 10793 10798 10805 10813 10823 10830 10834 10844 10856 10862 10869 10876 10882 10887 10892 10896 10898 10900 10901 10905 10910 10916 10921 10925 10930 10934 10939 10941 10943 10946 10948 10951 10954 10957 10961 10963 10965 10968 10970 10972 10974 10976 10978 10980 10982 10983 10984 10986
10678 10686 10695 10704 10711 10717 10724 10730 10739 10748 10756 10762 10767 10773 10779 10784 10790 10797 10806 10817 10824 10828 10837 10846 10853 10861 10869 10875 10880 10884 10887 10891 10893 10895 10899 10906 10914 10920 10924 10928 10933 10937 10940 10943 10945 10947 10950 10953 10956 10958 10960 10963 10965 10968 10971 10973 10974 10976 10978 10980 10982 10983 10985
10666 10677 10686 10695 10702 10709 10715 10722 10729 10738 10745 10751 10758 10764 10770 10776 10782 10788 10798 10810 10816 10820 10828 10837 10843 10852 10861 10867 10872 10875 10880 10884 10887 10890 10895 10901 10909 10916 10921 10925 10928 10931 10935 10939 10942 10945 10948 10952 10955 10958 10960 10962 10964 10967 10970 10972 10973 10974 10976 10978 10980 10982 10983
10654 10665 10673 10681 10689 10696 10705 10712 10719 10727 10734 10741 10748 10755 10760 10766 10772 10779 10791 10802 10807 10811 10821 10829 10835 10843 10853 10860 10864 10867 10872 10877 10882 10886 10891 10896 10901 10907 10914 10919 10921 10924 10928 10931 10935 10939 10944 10948 10952 10956 10959 10961 10964 10966 10969 10971 10972 10974 10975 10977 10979 10980 10981
10642 10650 10659 10666 10674 10683 10692 10700 10707 10714 10722 10729 10737 10744 10750 10755 10761 10772 10784 10793 10798 10805 10814 10821 10827 10835 10844 10851 10855 10859 10865 10871 10877 10882 10887 10891 10895 10898 10904 10911 10916 10919 10922 10926 10929 10934 10939 10943 10947 10950 10954 10957 10960 10964 10967 10970 10971 10973 10975 10976 10977 10979 10980
10630 10635 10644 10653 10661 10670 10679 10686 10693 10701 10707 10714 10722 10730 10737 10742 10750 10763 10776 10784 10791 10798 10805 10812 10819 10827 10835 10841 10847 10852 10858 10864 10871 10876 10882 10887 10890 10892 10896 10903 10910 10914 10917 10921 10925 10929 10933 10938 10941 10945 10948 10951 10953 10958 10962 10966 10969 10972 10974 10975 10976 10978 10979
10619 10622 10629 10639 10649 10658 10667 10674 10681 10686 10692 10701 10709 10716 10724 10731 10740 10753 10766 10776 10783 10790 10796 10802 10810 10818 10825 10831 10838 10845 10851 10857 10863 10869 10875 10881 10885 10888 10890 10895 10902 10907 10911 10916 10921 10925 10928 10932 10935 10939 10943 10946 10949 10952 10956 10959 10964 10968 10971 10973 10975 10976 10978
10609 10610 10616 10624 10635 10646 10655 10662 10667 10673 10681 10689 10696 10703 10711 10720 10730 10743 10756 10766 10774 10781 10786 10792 10800 10808 10815 10821 10829 10836 10842 10849 10855 10861 10868 10873 10878 10883 10885 10888 10893 10900 10905 10910 10915 10920 10924 10927 10930 10934 10937 10941 10945 10948 10952 10955 10959 10963 10966 10969 10971 10973 10976
10597 10599 10604 10610 10619 10631 10641 10648 10654 10662 10669 10676 10684 10692 10699 10707 10718 10730 10740 10752 10763 10771 10775 10780 10788 10798 10805 10812 10820 10827 10834 10840 10847 10854 10860 10865 10870 10875 10879 10882 10886 10893 10900 10905 10909 10914 10918 10922 10926 10929 10932 10936 10941 10945 10949 10952 10956 10959 10963 10967 10969 10970 10971
10586 10588 10593 10597 10605 10616 10626 10633 10641 10648 10655 10663 10672 10680 10687 10695 10706 10717 10727 10740 10752 10760 10763 10769 10777 10787 10795 10802 10811 10819 10826 10832 10839 10846 10851 10856 10862 10867 10872 10877 10881 10886 10894 10899 10903 10907 10912 10917 10921 10925 10928 10932 10936 10941 10944 10947 10950 10953 10957 10962 10966 10967 10967
10575 10578 10583 10588 10596 10603 10608 10616 10626 10634 10641 10651 10659 10666 10675 10684 10694 10705 10717 10728 10739 10748 10753 10759 10768 10777 10785 10793 10802 10811 10818 10824 10830 10837 10842 10848 10854 10859 10864 10870 10872 10877 10885 10892 10896 10899 10905 10911 10916 10919 10924 10928 10931 10935 10937 10939 10943 10945 10946 10949 10954 10958 10961
10566 10569 10573 10582 10589 10589 10591 10601 10612 10619 10628 10637 10644 10653 10662 10671 10681 10694 10706 10715 10725 10737 10744 10750 10758 10767 10775 10784 10793 10802 10811 10816 10821 10827 10833 10839 10845 10850 10855 10860 10864 10868 10876 10883 10888 10893 10899 10906 10913 10918 10923 10928 10929 10930 10932 10934 10938 10940 10940 10940 10942 10946 10950
10556 10558 10563 10572 10579 10579 10581 10588 10594 10602 10613 10622 10630 10639 10649 10657 10668 10682 10694 10702 10712 10725 10734 10740 10746 10754 10764 10774 10784 10793 10804 10809 10812 10818 10827 10833 10838 10843 10847 10852 10856 10862 10867 10874 10882 10889 10895 10902 10910 10915 10921 10926 10927 10926 10927 10931 10934 10936 10937 10936 10936 10938 10941
10544 10547 10550 10557 10566 10570 10569 10570 10575 10585 10597 10607 10615 10625 10635 10645 10656 10670 10682 10691 10700 10712 10723 10730 10735 10742 10751 10762 10773 10783 10794 10801 10804 10810 10818 10825 10830 10835 10839 10843 10849 10854 10860 10866 10875 10883 10889 10894 10899 10903 10910 10917 10918 10918 10921 10925 10927 10930 10932 10932 10933 10935 10937
10531 10535 10539 10545 10553 10557 10555 10554 10560 10570 10579 10590 10600 10610 10622 10634 10646 10659 10671 10679 10687 10698 10710 10719 10725 10730 10737 10749 10761 10771 10783 10791 10796 10801 10808 10816 10822 10827 10830 10835 10841 10847 10852 10858 10865 10874 10881 10885 10888 10893 10900 10905 10906 10909 10914 10917 10920 10922 10925 10928 10931 10934 10936
10521 10524 10528 10534 10541 10545 10544 10541 10545 10553 10563 10573 10584 10597 10612 10625 10636 10647 10657 10666 10674 10684 10696 10706 10713 10718 10724 10734 10746 10758 10769 10780 10787 10791 10797 10806 10812 10817 10821 10826 10831 10838 10844 10849 10857 10867 10873 10876 10880 10885 10890 10892 10894 10898 10905 10909 10912 10915 10919 10923 10927 10931 10935
10512 10515 10519 10524 10529 10535 10535 10531 10531 10540 10551 10559 10571 10590 10606 10614 10623 10633 10643 10651 10660 10669 10680 10692 10701 10707 10712 10720 10731 10744 10755 10767 10776 10781 10786 10794 10801 10806 10812 10816 10820 10827 10834 10839 10849 10858 10862 10865 10870 10876 10880 10882 10886 10891 10896 10901 10905 10910 10913 10917 10923 10929 10934
10505 10507 10510 10514 10518 10523 10525 10522 10521 10529 10540 10550 10565 10583 10594 10599 10607 10619 10628 10637 10645 10654 10664 10676 10687 10695 10701 10707 10717 10729 10741 10753 10764 10770 10775 10782 10788 10795 10802 10807 10811 10816 10823 10830 10838 10846 10851 10855 10860 10866 10871 10875 10880 10885 10890 10895 10899 10904 10908 10912 10918 10925 10930
10496 10499 10502 10505 10508 10511 10514 10513 10512 10518 10530 10546 10560 10569 10576 10583 10593 10603 10613 10623 10632 10639 10649 10661 10673 10683 10689 10695 10704 10716 10727 10739 10751 10759 10764 10770 10777 10784 10791 10798 10802 10807 10813 10820 10828 10836 10842 10847 10851 10857 10862 10868 10873 10878 10883 10889 10893 10897 10902 10906 10911 10917 10921
10488 10491 10493 10495 10498 10501 10504 10506 10505 10509 10521 10536 10546 10551 10558 10569 10579 10587 10597 10608 10618 10625 10634 10645 10658 10669 10677 10683 10691 10702 10714 10726 10738 10747 10753 10758 10766 10773 10780 10787 10794 10799 10803 10809 10818 10825 10832 10838 10843 10848 10854 10859 10864 10869 10875 10882 10887 10891 10894 10899 10904 10909 10913
10480 10482 10485 10487 10488 10491 10496 10499 10499 10501 10510 10522 10530 10535 10543 10554 10565 10574 10582 10592 10603 10612 10620 10630 10642 10654 10663 10670 10678 10688 10699 10712 10725 10735 10742 10747 10754 10762 10769 10776 10784 10791 10794 10799 10807 10815 10822 10828 10834 10840 10846 10851 10857 10862 10868 10875 10880 10883 10887 10891 10896 10901 10905
10473 10475 10477 10479 10480 10483 10488 10491 10491 10492 10499 10508 10516 10523 10531 10540 10552 10562 10569 10578 10589 10599 10606 10615 10627 10639 10650 10658 10665 10674 10685 10697 10710 10722 10731 10736 10743 10750 10758 10765 10774 10782 10786 10789 10796 10805 10813 10820 10826 10832 10838 10844 10850 10855 10861 10866 10870 10873 10878 10883 10889 10893 10898
10466 10468 10470 10471 10473 10476 10480 10483 10483 10484 10488 10496 10504 10512 10520 10529 10539 10549 10558 10565 10574 10585 10593 10601 10611 10623 10635 10645 10653 10661 10671 10682 10694 10707 10718 10725 10731 10738 10746 10754 10763 10771 10777 10781 10787 10795 10804 10811 10817 10823 10829 10835 10842 10848 10853 10857 10861 10865 10871 10876 10881 10885 10890
10460 10461 10462 10464 10466 10469 10473 10475 10476 10477 10480 10485 10493 10501 10509 10517 10525 10535 10545 10553 10562 10571 10580 10588 10596 10607 10619 10631 10639 10647 10657 10668 10679 10691 10703 10713 10719 10726 10733 10742 10751 10760 10767 10773 10778 10785 10793 10800 10807 10814 10821 10827 10833 10839 10844 10849 10854 10859 10864 10869 10874 10878 10883
10454 10455 10456 10457 10459 10462 10466 10468 10470 10470 10472 10477 10483 10490 10498 10506 10513 10522 10531 10541 10549 10558 10567 10575 10584 10593 10604 10616 10626 10634 10643 10654 10664 10675 10688 10700 10708 10714 10721 10729 10738 10747 10756 10763 10769 10774 10782 10790 10799 10806 10813 10818 10823 10830 10836 10842 10847 10852 10856 10861 10866 10871 10876
10449 10450 10450 10451 10452 10455 10458 10461 10463 10464 10466 10470 10475 10481 10488 10495 10502 10510 10519 10528 10537 10545 10554 10562 10570 10579 10589 10600 10612 10622 10630 10640 10650 10660 10672 10685 10696 10703 10710 10717 10726 10735 10744 10752 10759 10765 10772 10782 10792 10800 10805 10810 10815 10822 10828 10834 10840 10845 10848 10853 10858 10863 10868
10443 10444 10444 10445 10446 10448 10450 10453 10456 10457 10459 10462 10467 10473 10479 10486 10492 10499 10507 10516 10524 10533 10541 10548 10556 10565 10573 10584 10597 10609 10618 10625 10635 10646 10657 10670 10682 10692 10699 10706 10713 10723 10732 10740 10748 10755 10763 10772 10781 10790 10796 10801 10807 10813 10820 10826 10832 10837 10841 10845 10850 10854 10859
10437 10438 10439 10440 10441 10442 10444 10446 10448 10450 10452 10455 10460 10465 10471 10476 10482 10489 10496 10504 10512 10520 10528 10536 10543 10551 10559 10568 10581 10595 10604 10611 10620 10632 10643 10655 10667 10679 10688 10695 10702 10710 10720 10729 10737 10745 10753 10761 10769 10777 10784 10791 10798 10805 10812 10818 10823 10828 10832 10837 10841 10846 10850
10432 10433 10433 10434 10435 10437 10438 10439 10441 10443 10445 10447 10452 10458 10463 10467 10472 10478 10485 10493 10500 10508 10516 10524 10532 10539 10546 10554 10565 10579 10590 10597 10605 10616 10628 10640 10652 10665 10676 10685 10691 10698 10708 10717 10725 10733 10742 10750 10757 10765 10773 10781 10788 10796 10802 10808 10814 10819 10824 10829 10833 10838 10842